sat.trackr.live / text

‹ back to catalog

STARLINK-32923

NORAD 63097 · 2025-037W

PAYLOAD ACTIVE UNKNOWN

§ Identity

Operator
Country
US
Launch date
2025-02-23
Launch site
AFWTR
Launch vehicle
Mass (kg)
RCS (m²)

Purposes: comms

External: N2YO · Heavens-Above · Gunter

§ Orbital elements

Epoch: 2026-05-25T02:48:50.036256Z

Period
96.11 min
Inclination
70.0005°
Eccentricity
0.0004444
Mean motion
14.98331536 rev/d
Perigee alt
569.0 km
Apogee alt
575.1 km
Semi-major
6,950.2 km
B*
-1.2102e-4
RAAN
161.6150°
Arg perigee
266.9742°
Mean anomaly
93.0908°
Rev number
7,005

§ Raw data

STARLINK-329231 63097U 25037W   26145.11724579 -.00001537  00000+0 -12102-3 0  99922 63097  70.0005 161.6150 0004444 266.9742  93.0908 14.98331536 70055

JSON: /api/v1/satellites/63097 · /tle

For live sub-satellite position, see the globe view (requires WebGL).

§ Visibility from observer

Set your observer location to see the next 7 days of passes ≥ 10°. The values pass through the URL so the page stays shareable.

No JS? Fill the form by hand. The geolocation button needs JavaScript.